Date,TemperatureHighF,TemperatureAvgF,TemperatureLowF,DewpointHighF,DewpointAvgF,DewpointLowF,HumidityHigh,HumidityAvg,HumidityLow,PressureMaxIn,PressureMinIn,WindSpeedMaxMPH,WindSpeedAvgMPH,GustSpeedMaxMPH,PrecipitationSumIn
2013-3-1,70.5,70.5,70.5,50.4,50.4,50.4,49,49,49,30.17,30.17,0,0,0,0.00
2013-3-3,82.2,59.8,45.1,51.2,45.4,39.8,87,63,32,30.05,29.95,0,0,0,0.00
2013-3-4,70.5,52.4,39.7,49.7,42.7,35.9,86,71,46,30.09,29.98,0,0,0,0.04
2013-3-5,72.6,52.9,38.1,46.0,40.1,34.5,89,65,33,30.02,29.78,0,0,0,0.08
2013-3-6,67.8,51.4,36.3,46.2,40.1,32.5,87,68,37,30.02,29.78,0,0,0,0.10
2013-3-7,70.8,49.8,33.2,46.4,38.0,30.2,90,68,33,29.96,29.79,0,0,0,0.00
2013-3-8,75.0,51.7,38.4,49.0,41.6,35.5,91,72,34,30.00,29.77,0,0,0,0.00
2013-3-9,70.3,51.7,35.9,47.5,39.0,33.0,90,66,30,30.26,30.00,0,0,0,0.00
2013-3-10,83.4,53.2,32.1,44.2,36.1,29.3,90,60,20,30.30,30.17,0,0,0,0.00
2013-3-11,86.1,56.6,34.7,50.5,39.6,30.8,87,59,26,30.21,30.03,0,0,0,0.00
2013-3-12,90.5,59.5,38.3,54.7,44.3,34.3,87,62,29,30.09,29.97,0,0,0,0.00
2013-3-13,92.8,62.3,41.3,58.5,48.5,38.0,90,65,32,30.11,29.98,0,0,0,0.00
2013-3-14,89.4,62.1,44.6,59.7,49.0,41.8,90,66,35,30.08,30.02,0,0,0,0.00
2013-3-15,87.6,58.9,40.8,54.9,45.4,37.2,89,65,33,30.08,29.96,0,0,0,0.00
2013-3-16,86.9,59.8,42.6,55.7,46.7,39.6,91,68,30,30.05,29.94,0,0,0,0.00
2013-3-21,70.7,69.4,68.7,40.0,38.1,36.1,34,32,30,29.96,29.95,0,0,0,0.00
2013-3-22,71.9,60.9,41.9,35.8,27.6,18.7,70,33,15,30.04,29.94,0,0,0,0.00
2013-3-23,89.4,57.3,31.8,40.6,33.1,27.8,86,51,15,30.10,29.95,0,0,0,0.00
2013-3-30,81.5,60.6,53.4,56.1,50.3,47.4,91,70,42,30.00,29.95,0,0,0,0.00
2013-3-31,79.5,60.4,46.5,59.2,51.0,44.0,92,75,36,30.01,29.93,0,0,0,0.08